TimePST,TemperatureF,Dew PointF,Humidity,Sea Level PressureIn,VisibilityMPH,Wind Direction,Wind SpeedMPH,Gust SpeedMPH,PrecipitationIn,Events,Conditions,WindDirDegrees,DateUTC
12:52 AM,39.9,37.0,89,30.11,8.0,Calm,Calm,-,N/A,,Clear,0,2013-02-22 08:52:00
1:52 AM,39.0,37.0,93,30.12,8.0,NNE,4.6,-,N/A,,Clear,30,2013-02-22 09:52:00
2:52 AM,37.0,35.1,93,30.12,7.0,NNE,4.6,-,N/A,,Clear,30,2013-02-22 10:52:00
4:52 AM,37.9,36.0,93,30.13,8.0,NE,6.9,-,N/A,,Clear,40,2013-02-22 12:52:00
5:52 AM,37.9,35.1,89,30.14,10.0,NNE,4.6,-,N/A,,Clear,20,2013-02-22 13:52:00
6:52 AM,36.0,34.0,93,30.16,9.0,NE,3.5,-,N/A,,Clear,40,2013-02-22 14:52:00
7:52 AM,44.1,36.0,73,30.19,10.0,ENE,5.8,-,N/A,,Clear,60,2013-02-22 15:52:00
8:52 AM,50.0,37.0,61,30.20,10.0,ENE,4.6,-,N/A,,Clear,70,2013-02-22 16:52:00
9:52 AM,55.9,36.0,47,30.20,10.0,East,3.5,-,N/A,,Clear,100,2013-02-22 17:52:00
10:52 AM,61.0,39.9,46,30.19,10.0,WSW,8.1,-,N/A,,Clear,250,2013-02-22 18:52:00
11:52 AM,60.1,39.9,47,30.17,10.0,WSW,8.1,-,N/A,,Clear,250,2013-02-22 19:52:00
12:52 PM,62.1,41.0,46,30.15,10.0,WSW,8.1,-,N/A,,Clear,250,2013-02-22 20:52:00
1:52 PM,61.0,42.1,50,30.14,10.0,West,9.2,-,N/A,,Clear,260,2013-02-22 21:52:00
2:52 PM,59.0,44.1,58,30.13,10.0,West,10.4,-,N/A,,Clear,260,2013-02-22 22:52:00
3:52 PM,59.0,46.0,62,30.12,10.0,West,8.1,-,N/A,,Clear,260,2013-02-22 23:52:00
4:52 PM,57.0,46.0,67,30.13,10.0,WNW,8.1,-,N/A,,Clear,290,2013-02-23 00:52:00
5:52 PM,55.0,45.0,69,30.14,10.0,Calm,Calm,-,N/A,,Clear,0,2013-02-23 01:52:00
6:52 PM,50.0,44.1,80,30.15,10.0,Calm,Calm,-,N/A,,Clear,0,2013-02-23 02:52:00
7:52 PM,46.9,42.1,83,30.16,10.0,Calm,Calm,-,N/A,,Clear,0,2013-02-23 03:52:00
8:52 PM,44.1,39.9,85,30.17,10.0,Calm,Calm,-,N/A,,Clear,0,2013-02-23 04:52:00
9:52 PM,42.1,39.0,89,30.18,10.0,Calm,Calm,-,N/A,,Clear,0,2013-02-23 05:52:00
10:52 PM,41.0,37.0,86,30.19,9.0,Calm,Calm,-,N/A,,Clear,0,2013-02-23 06:52:00
11:52 PM,39.0,36.0,89,30.18,9.0,Calm,Calm,-,N/A,,Clear,0,2013-02-23 07:52:00